• In Uzbekistan
  • List of Countries
  • For 7 days
  • Water Temperature
  • Satellite Maps
  • Weather Map
  • Weather Widgets
  • user-avatar
    Login

    Hourly Weather Konstantyna

    Today, 20 November, Monday

    Time Temperature Precipitation Wind Pressure Humidity
    00:00 +9°C° 0 mm 1 mps 713 mmHg 80%
    01:00 +9°C° 0 mm 1 mps 713 mmHg 78%
    02:00 +9°C° 0 mm 1 mps 713 mmHg 76%
    03:00 +8°C° 0 mm 1 mps 713 mmHg 75%
    04:00 +8°C° 0 mm 1 mps 713 mmHg 73%
    05:00 +8°C° 0 mm 1 mps 713 mmHg 71%
    06:00 +8°C° 0 mm 1 mps 713 mmHg 68%
    07:00 +10°C° 0 mm 1 mps 714 mmHg 60%
    08:00 +12°C° 0 mm 1 mps 714 mmHg 52%
    09:00 +14°C° 0 mm 1 mps 715 mmHg 43%
    10:00 +15°C° 0 mm 1 mps 715 mmHg 40%
    11:00 +16°C° 0 mm 1 mps 715 mmHg 37%
    12:00 +16°C° 0 mm 0 mps 715 mmHg 33%
    13:00 +18°C° 0 mm 1 mps 715 mmHg 34%
    14:00 +18°C° 0 mm 1 mps 714 mmHg 34%
    15:00 +18°C° 0 mm 1 mps 714 mmHg 34%
    16:00 +15°C° 0 mm 1 mps 714 mmHg 42%
    17:00 +14°C° 0 mm 1 mps 714 mmHg 50%
    18:00 +12°C° 0 mm 1 mps 714 mmHg 58%
    19:00 +11°C° 0 mm 1 mps 714 mmHg 59%
    20:00 +11°C° 0 mm 1 mps 714 mmHg 59%
    21:00 +11°C° 0 mm 1 mps 714 mmHg 60%
    22:00 +11°C° 0 mm 1 mps 714 mmHg 57%
    23:00 +10°C° 0 mm 1 mps 714 mmHg 53%

    Tomorrow, 21 November, Tuesday

    Time Temperature Precipitation Wind Pressure Humidity
    00:00 +10°C° 0 mm 1 mps 714 mmHg 50%
    01:00 +10°C° 0 mm 1 mps 714 mmHg 47%
    02:00 +10°C° 0 mm 1 mps 713 mmHg 44%
    03:00 +10°C° 0 mm 1 mps 713 mmHg 41%
    04:00 +9°C° 0 mm 1 mps 713 mmHg 40%
    05:00 +9°C° 0 mm 1 mps 713 mmHg 40%
    06:00 +9°C° 0 mm 1 mps 713 mmHg 39%
    07:00 +11°C° 0 mm 1 mps 713 mmHg 36%
    08:00 +13°C° 0 mm 1 mps 714 mmHg 33%
    09:00 +15°C° 0 mm 1 mps 714 mmHg 30%
    10:00 +16°C° 0 mm 1 mps 714 mmHg 28%
    11:00 +18°C° 0 mm 1 mps 714 mmHg 26%
    12:00 +20°C° 0 mm 1 mps 714 mmHg 23%
    13:00 +20°C° 0 mm 1 mps 714 mmHg 25%
    14:00 +20°C° 0 mm 1 mps 713 mmHg 27%
    15:00 +19°C° 0 mm 2 mps 713 mmHg 29%
    16:00 +16°C° 0 mm 1 mps 713 mmHg 35%
    17:00 +14°C° 0 mm 1 mps 713 mmHg 41%
    18:00 +12°C° 0 mm 1 mps 712 mmHg 46%
    19:00 +12°C° 0 mm 1 mps 712 mmHg 46%
    20:00 +12°C° 0 mm 1 mps 712 mmHg 46%
    21:00 +11°C° 0 mm 1 mps 712 mmHg 46%
    22:00 +11°C° 0 mm 1 mps 712 mmHg 44%
    23:00 +11°C° 0 mm 1 mps 712 mmHg 43%

    Day after tomorrow, 22 November, Wednesday

    Time Temperature Precipitation Wind Pressure Humidity
    00:00 +11°C° 0 mm 1 mps 712 mmHg 42%
    01:00 +10°C° 0 mm 1 mps 712 mmHg 41%
    02:00 +10°C° 0 mm 1 mps 711 mmHg 41%
    03:00 +10°C° 0 mm 1 mps 711 mmHg 40%
    04:00 +10°C° 0 mm 1 mps 711 mmHg 40%
    05:00 +9°C° 0 mm 1 mps 711 mmHg 40%
    06:00 +9°C° 0 mm 1 mps 711 mmHg 39%
    07:00 +11°C° 0 mm 1 mps 712 mmHg 36%
    08:00 +13°C° 0 mm 1 mps 712 mmHg 34%
    09:00 +15°C° 0 mm 1 mps 713 mmHg 31%
    10:00 +16°C° 0 mm 1 mps 712 mmHg 28%
    11:00 +19°C° 0 mm 1 mps 712 mmHg 25%
    12:00 +20°C° 0 mm 1 mps 712 mmHg 22%
    13:00 +20°C° 0 mm 1 mps 712 mmHg 24%
    14:00 +20°C° 0 mm 1 mps 712 mmHg 25%
    15:00 +20°C° 0 mm 1 mps 712 mmHg 27%
    16:00 +18°C° 0 mm 1 mps 712 mmHg 31%
    17:00 +15°C° 0 mm 1 mps 712 mmHg 35%
    18:00 +13°C° 0 mm 1 mps 711 mmHg 39%
    19:00 +13°C° 0 mm 1 mps 712 mmHg 38%
    20:00 +12°C° 0 mm 1 mps 712 mmHg 38%
    21:00 +12°C° 0 mm 1 mps 712 mmHg 38%
    22:00 +12°C° 0 mm 1 mps 712 mmHg 37%
    23:00 +11°C° 0 mm 1 mps 712 mmHg 36%

    23 November, Thursday

    Time Temperature Precipitation Wind Pressure Humidity
    00:00 +11°C° 0 mm 1 mps 712 mmHg 35%
    01:00 +11°C° 0 mm 1 mps 712 mmHg 34%
    02:00 +10°C° 0 mm 1 mps 712 mmHg 34%
    03:00 +10°C° 0 mm 1 mps 712 mmHg 33%
    04:00 +10°C° 0 mm 1 mps 712 mmHg 33%
    05:00 +9°C° 0 mm 1 mps 712 mmHg 33%
    06:00 +9°C° 0 mm 1 mps 712 mmHg 33%
    07:00 +11°C° 0 mm 1 mps 713 mmHg 31%
    08:00 +13°C° 0 mm 1 mps 713 mmHg 29%
    09:00 +16°C° 0 mm 1 mps 714 mmHg 27%
    10:00 +18°C° 0 mm 1 mps 714 mmHg 25%
    11:00 +19°C° 0 mm 1 mps 714 mmHg 23%
    12:00 +20°C° 0 mm 1 mps 714 mmHg 21%
    13:00 +20°C° 0 mm 1 mps 714 mmHg 23%
    14:00 +20°C° 0 mm 1 mps 714 mmHg 25%
    15:00 +20°C° 0 mm 1 mps 714 mmHg 27%
    16:00 +18°C° 0 mm 1 mps 714 mmHg 32%
    17:00 +15°C° 0 mm 1 mps 714 mmHg 36%
    18:00 +13°C° 0 mm 1 mps 714 mmHg 40%
    19:00 +13°C° 0 mm 1 mps 714 mmHg 40%
    20:00 +12°C° 0 mm 1 mps 714 mmHg 40%
    21:00 +12°C° 0 mm 1 mps 714 mmHg 40%
    22:00 +12°C° 0 mm 1 mps 714 mmHg 39%
    23:00 +11°C° 0 mm 1 mps 714 mmHg 38%

    24 November, Friday

    Time Temperature Precipitation Wind Pressure Humidity
    00:00 +11°C° 0 mm 1 mps 714 mmHg 38%
    01:00 +11°C° 0 mm 1 mps 713 mmHg 38%
    02:00 +11°C° 0 mm 1 mps 713 mmHg 37%
    03:00 +9°C° 0 mm 2 mps 713 mmHg 37%
    04:00 +9°C° 0 mm 2 mps 713 mmHg 38%
    05:00 +9°C° 0 mm 2 mps 713 mmHg 39%
    06:00 +8°C° 0 mm 2 mps 713 mmHg 40%
    07:00 +10°C° 0 mm 2 mps 714 mmHg 38%
    08:00 +13°C° 0 mm 2 mps 715 mmHg 36%
    09:00 +15°C° 0 mm 2 mps 715 mmHg 34%
    10:00 +17°C° 0 mm 2 mps 715 mmHg 31%
    11:00 +18°C° 0 mm 2 mps 715 mmHg 28%
    12:00 +19°C° 0 mm 2 mps 715 mmHg 25%
    13:00 +20°C° 0 mm 1 mps 715 mmHg 26%
    14:00 +20°C° 0 mm 1 mps 714 mmHg 28%
    15:00 +20°C° 0 mm 1 mps 714 mmHg 29%
    16:00 +18°C° 0 mm 1 mps 714 mmHg 32%
    17:00 +15°C° 0 mm 1 mps 714 mmHg 36%
    18:00 +13°C° 0 mm 1 mps 714 mmHg 39%
    19:00 +13°C° 0 mm 1 mps 714 mmHg 39%
    20:00 +13°C° 0 mm 1 mps 714 mmHg 39%
    21:00 +12°C° 0 mm 1 mps 714 mmHg 39%
    22:00 +12°C° 0 mm 2 mps 714 mmHg 40%
    23:00 +12°C° 0 mm 2 mps 714 mmHg 42%

    25 November, Saturday

    Time Temperature Precipitation Wind Pressure Humidity
    00:00 +10°C° 0 mm 2 mps 714 mmHg 43%
    01:00 +10°C° 0 mm 2 mps 714 mmHg 45%
    02:00 +10°C° 0 mm 2 mps 714 mmHg 46%
    03:00 +9°C° 0 mm 2 mps 713 mmHg 48%
    04:00 +9°C° 0 mm 2 mps 713 mmHg 49%
    05:00 +9°C° 0 mm 2 mps 714 mmHg 51%
    06:00 +9°C° 0 mm 2 mps 714 mmHg 52%
    07:00 +12°C° 0 mm 2 mps 714 mmHg 48%
    08:00 +13°C° 0 mm 2 mps 715 mmHg 44%
    09:00 +15°C° 0 mm 2 mps 715 mmHg 40%
    10:00 +17°C° 0 mm 2 mps 715 mmHg 36%
    11:00 +18°C° 0 mm 2 mps 715 mmHg 31%
    12:00 +20°C° 0 mm 2 mps 715 mmHg 27%
    13:00 +20°C° 0 mm 2 mps 715 mmHg 28%
    14:00 +21°C° 0 mm 1 mps 714 mmHg 29%
    15:00 +21°C° 0 mm 1 mps 714 mmHg 30%
    16:00 +19°C° 0 mm 1 mps 714 mmHg 34%
    17:00 +16°C° 0 mm 1 mps 714 mmHg 37%
    18:00 +14°C° 0 mm 1 mps 714 mmHg 40%
    19:00 +14°C° 0 mm 1 mps 714 mmHg 41%
    20:00 +13°C° 0 mm 2 mps 714 mmHg 42%
    21:00 +13°C° 0 mm 2 mps 715 mmHg 43%
    22:00 +13°C° 0 mm 2 mps 715 mmHg 44%
    23:00 +13°C° 0 mm 2 mps 714 mmHg 46%
    Show more